TimeCST,TemperatureF,Dew PointF,Humidity,Sea Level PressureIn,VisibilityMPH,Wind Direction,Wind SpeedMPH,Gust SpeedMPH,PrecipitationIn,Events,Conditions,WindDirDegrees,DateUTC
12:58 AM,43.0,40.3,90,30.07,10.0,NNE,5.8,-,N/A,,Clear,30,2013-02-14 06:58:00
1:58 AM,42.6,39.9,90,30.08,10.0,NNE,4.6,-,N/A,,Clear,20,2013-02-14 07:58:00
2:58 AM,42.3,39.6,90,30.08,10.0,NNE,5.8,-,N/A,,Clear,20,2013-02-14 08:58:00
3:58 AM,42.3,39.7,91,30.08,10.0,North,8.1,-,N/A,,Clear,10,2013-02-14 09:58:00
4:58 AM,42.3,39.7,91,30.09,10.0,NNE,6.9,-,N/A,,Clear,30,2013-02-14 10:58:00
5:58 AM,41.0,38.8,92,30.10,10.0,NE,8.1,-,N/A,,Scattered Clouds,40,2013-02-14 11:58:00
6:58 AM,41.4,39.6,93,30.14,10.0,NNE,5.8,-,N/A,,Clear,20,2013-02-14 12:58:00
7:58 AM,42.3,40.1,92,30.16,10.0,NNE,6.9,-,N/A,,Clear,20,2013-02-14 13:58:00
8:58 AM,45.1,40.6,84,30.17,10.0,NE,8.1,-,N/A,,Clear,50,2013-02-14 14:58:00
9:58 AM,47.8,39.7,74,30.17,10.0,NE,5.8,-,N/A,,Clear,50,2013-02-14 15:58:00
10:58 AM,51.6,39.7,64,30.17,10.0,NNE,5.8,-,N/A,,Clear,20,2013-02-14 16:58:00
11:58 AM,54.0,40.1,59,30.14,10.0,Variable,1.2,-,N/A,,Clear,0,2013-02-14 17:58:00
12:58 PM,56.7,42.1,58,30.11,10.0,South,6.9,-,N/A,,Clear,170,2013-02-14 18:58:00
1:58 PM,55.8,42.4,61,30.08,10.0,South,5.8,-,N/A,,Clear,190,2013-02-14 19:58:00
2:58 PM,55.8,42.8,62,30.08,10.0,South,10.4,-,N/A,,Clear,190,2013-02-14 20:58:00
3:58 PM,55.4,43.2,63,30.08,10.0,South,5.8,-,N/A,,Clear,190,2013-02-14 21:58:00
4:58 PM,54.3,43.3,66,30.08,10.0,SSW,3.5,-,N/A,,Clear,200,2013-02-14 22:58:00
5:58 PM,50.4,43.2,76,30.08,10.0,Calm,Calm,-,N/A,,Clear,0,2013-02-14 23:58:00
6:58 PM,48.7,43.2,81,30.10,10.0,Calm,Calm,-,N/A,,Clear,0,2013-02-15 00:58:00
7:58 PM,48.4,44.1,85,30.11,10.0,Calm,Calm,-,N/A,,Clear,0,2013-02-15 01:58:00
8:58 PM,48.7,45.1,87,30.11,10.0,Calm,Calm,-,N/A,,Clear,0,2013-02-15 02:58:00
9:58 PM,47.3,44.6,90,30.12,10.0,Calm,Calm,-,N/A,,Clear,0,2013-02-15 03:58:00
10:58 PM,45.3,43.0,92,30.12,10.0,Calm,Calm,-,N/A,,Clear,0,2013-02-15 04:58:00
11:58 PM,45.7,44.1,94,30.12,10.0,Calm,Calm,-,N/A,,Clear,0,2013-02-15 05:58:00